Flag for Australia Weather past 2 weeks in Canberra, Australian Capital Territory, Australia

Now
55 °F

Passing clouds.


Feels Like: 52 °F
Forecast: 37 / 57 °F
Wind: 14 mph from North

Location: Canberra Airport

Current Time: Jul 31, 2015 at 11:41:03 AM

Latest Report: Jul 31, 2015 at 11:00 AM


Visibility: N/A

Pressure: 30.12 "Hg (28.11 "Hg at 577m altitude)

Humidity: 55%

Dew point: 39 °F

Location of CanberraLocation

Historic Weather in Canberra — Graph

°F

Canberra temperature yesterday

Maximum temperature yesterday: 54 °F (at 12:00 PM)
Minimum temperature yesterday: 28 °F (at 3:30 AM)
Average temperature yesterday: 42 °F

Past Weeks' High & Low Weather Summary

 TemperatureHumidityPressure
High57 °F (Jul 21, 2:30 PM)100% (Jul 18, 2:30 AM)30.54 "Hg (Jul 18, 2:30 AM)
Low23 °F (Jul 19, 6:30 AM)38% (Jul 20, 3:00 PM)29.86 "Hg (Jul 17, 5:00 AM)
Average42 °F80%30.23 "Hg
* Reported Jul 16 10:00 AM — Jul 31 10:30 AM, Canberra, Weather by CustomWeather, © 2015

Note: Actual official high and low records may vary slightly from our data, if they occured in-between our weather recording intervals... More about our weather records

Advertising

Canberra weather history for previous 24 hours

 ConditionsComfort  
Time TempWeatherWind HumidityBarometerVisibility
10:30 AM
Fri, Jul 31
54 °FPassing clouds.12 mph58%30.12 "HgN/A
10:00 AM52 °FPassing clouds.13 mph62%30.12 "HgN/A
9:30 AM50 °FPassing clouds.8 mph67%30.12 "HgN/A
9:00 AM46 °FPassing clouds.7 mph76%30.12 "HgN/A
8:30 AM46 °FPassing clouds.6 mph71%30.12 "HgN/A
8:00 AM43 °FPassing clouds.6 mph81%30.12 "HgN/A
7:30 AM41 °FPassing clouds.8 mph87%30.09 "HgN/A
7:00 AM39 °FPassing clouds.7 mph87%30.09 "HgN/A
6:30 AM39 °FPassing clouds.10 mph87%30.07 "HgN/A
6:00 AM39 °FPassing clouds.8 mph87%30.07 "HgN/A
5:30 AM39 °FPassing clouds.9 mph81%30.07 "HgN/A
5:00 AM43 °FPassing clouds.10 mph76%30.04 "HgN/A
4:30 AM45 °FPassing clouds.10 mph76%30.07 "HgN/A
4:00 AM43 °FPassing clouds.8 mph76%30.04 "HgN/A
3:30 AM45 °FMostly cloudy.13 mph76%30.04 "HgN/A
3:00 AM43 °FPartly cloudy.9 mph81%30.04 "HgN/A
2:30 AM43 °FPassing clouds.10 mph76%30.04 "HgN/A
2:00 AM45 °FPassing clouds.9 mph76%30.07 "HgN/A
1:30 AM43 °FPassing clouds.10 mph81%30.04 "HgN/A
1:00 AM43 °FPassing clouds.13 mph81%30.07 "HgN/A
12:30 AM43 °FClear.9 mph76%30.07 "HgN/A
12:00 AM45 °FPassing clouds.12 mph76%30.07 "HgN/A
11:30 PM
Thu, Jul 30
45 °FClear.12 mph76%30.07 "HgN/A
11:00 PM45 °FPassing clouds.15 mph76%30.07 "HgN/A
10:30 PM45 °FPassing clouds.15 mph76%30.09 "HgN/A
10:00 PM46 °FMostly cloudy.17 mph71%30.09 "HgN/A
9:30 PM46 °FPartly cloudy.14 mph71%30.09 "HgN/A
9:00 PM45 °FPartly cloudy.15 mph76%30.09 "HgN/A
8:30 PM43 °FPassing clouds.13 mph81%30.09 "HgN/A
8:00 PM45 °FPassing clouds.12 mph76%30.09 "HgN/A
7:30 PM45 °FPartly cloudy.14 mph76%30.09 "HgN/A
7:00 PM45 °FPassing clouds.18 mph76%30.09 "HgN/A
6:30 PM46 °FPassing clouds.18 mph71%30.12 "HgN/A
6:00 PM46 °FPassing clouds.17 mph71%30.09 "HgN/A
5:30 PM46 °FPassing clouds.13 mph66%30.09 "HgN/A
5:00 PM46 °FPassing clouds.16 mph66%30.12 "HgN/A
4:30 PM48 °FPassing clouds.18 mph62%30.12 "HgN/A
4:00 PM50 °FPartly sunny.20 mph58%30.09 "HgN/A
3:30 PM50 °FPartly sunny.18 mph58%30.09 "HgN/A
3:00 PM50 °FPartly sunny.18 mph58%30.12 "HgN/A
2:30 PM52 °FPartly sunny.21 mph54%30.12 "HgN/A
1:30 PM50 °FPartly sunny.21 mph58%30.15 "HgN/A
1:00 PM54 °FPartly sunny.21 mph58%30.15 "HgN/A
12:30 PM50 °FPartly sunny.22 mph62%30.18 "HgN/A
12:00 PM54 °FPartly sunny.20 mph58%30.18 "HgN/A
11:30 AM52 °FPartly sunny.21 mph58%30.21 "HgN/A
11:00 AM52 °FScattered clouds.20 mph58%30.21 "HgN/A
Weather by CustomWeather, © 2015

See weather overviewHow to use our weather pages